GAOFEN-13 02

Last updated on Thu Jul 03 2025 00:02:49 GMT+0000 (Coordinated Universal Time)

1 55912U 23036A 25183.54016881 -.00000212 00000+0 00000+0 0 9992 2 55912 1.2873 322.8410 0003101 15.1141 285.5540 1.00268696 8581
UTC large
Height (km)
Speed (km/s)
/
Latitude / Longitude
Inclination (degrees)
Orbital Period (minutes)
Azimuth
Elevation
Range (km)
Doppler Factor

Next 0 passes for location: London (51.5072 / 0.1276)

Sorry there are no passes over London.